Cloud_Cover
0 2 42 9 8 5 90 9 19 7 30 32 9 32 42 6 5 10 7 5 3 0 0 0 0 0 0 0 0 0 0 0 0 0 0 1 1 96 21 0 0 0 0 0 0
0 0 2 3 8 4 0 14 7 2 5 5 15 30 52 42 5 5 6 4 0 0 0 0 0 0 0 0 0 0 0 0 0 4 98 5 96 100 30 0 37 4 0 0 0
0 0 0 0 1 18 0 0 0 0 1 2 4 15 7 11 2 0 0 0 0 0 0 0 0 0 0 0 0 2 0 0 0 0 9 29 59 62 4 0 24 0 0 0 0
5 0 0 0 0 0 0 0 0 0 0 0 0 0 0 1 0 0 0 0 0 0 0 0 0 0 0 0 0 0 0 0 0 0 5 80 100 100 0 0 3 3 0 1 0
5 4 2 0 5 4 0 0 0 0 0 0 0 0 0 5 0 3 0 0 0 0 0 0 0 5 4 0 0 0 0 0 0 0 10 97 23 100 4 0 0 4 5 4 4
5 5 5 5 5 5 5 2 0 0 0 0 16 2 5 92 3 0 1 3 2 0 0 0 5 10 5 4 2 3 3 0 0 0 0 2 9 67 28 5 0 0 5 3 0
5 5 12 5 5 5 30 26 4 5 5 22 24 36 64 94 64 5 5 5 6 5 5 5 5 29 5 2 5 6 5 5 4 3 0 0 5 0 0 4 0 0 0 0 0
27 83 5 12 6 20 75 79 87 53 16 76 53 5 98 100 35 5 5 5 5 5 5 5 6 8 17 11 51 5 6 66 95 9 3 5 46 12 0 0 1 0 0 0 0
88 24 6 100 88 24 5 36 48 99 29 54 65 6 96 100 100 33 9 6 79 50 5 0 5 28 69 5 5 15 91 53 92 100 5 5 100 100 36 1 4 0 0 0 0
97 58 5 4 2 3 5 2 5 5 5 5 34 90 100 99 100 100 100 71 48 5 28 5 16 26 15 7 5 5 5 5 19 88 41 76 96 100 100 97 100 71 4 2 0
5 5 5 5 5 99 7 1 3 5 5 51 34 85 100 61 100 100 100 100 100 100 50 8 5 24 5 5 5 5 20 6 71 34 10 100 90 98 100 100 100 100 6 5 4
100 99 57 5 5 5 19 10 5 4 5 4 51 28 80 100 97 100 100 100 99 92 95 96 78 84 53 5 5 69 5 98 100 100 100 95 73 100 100 100 100 100 100 64 98
100 100 100 76 5 5 5 31 69 3 9 100 32 5 5 82 99 100 99 100 100 100 83 49 6 7 5 5 6 78 73 46 13 80 88 20 100 100 100 100 100 100 100 100 100
100 100 100 100 8 5 5 5 5 5 2 6 96 37 5 6 77 98 99 97 98 51 60 56 100 76 14 64 4 44 8 12 19 5 67 77 76 100 100 100 100 100 100 100 100
100 100 100 100 96 39 5 5 5 28 54 3 5 80 69 100 100 100 97 61 75 92 98 100 100 100 78 44 100 84 69 43 20 95 78 100 100 100 100 100 100 100 100 100 96
100 100 100 100 95 84 65 20 8 37 76 5 5 5 17 41 97 100 100 90 100 100 100 58 12 100 76 99 100 34 9 6 5 11 6 93 32 100 100 100 100 100 100 100 92
96 100 100 100 100 100 100 100 62 100 93 17 5 30 87 65 55 23 9 49 78 98 100 23 52 100 23 34 84 100 99 30 13 5 10 65 2 100 100 100 100 100 100 73 0
100 96 100 100 100 100 100 92 100 97 9 18 57 75 73 93 93 67 56 85 70 94 78 68 53 40 90 31 62 100 100 100 100 99 5 4 14 66 96 100 100 99 9 6 2
100 100 100 100 100 100 98 100 98 97 100 100 100 65 61 100 100 98 98 29 28 100 100 95 6 96 100 100 100 100 98 100 100 100 100 74 7 97 100 100 91 12 10 15 7
100 100 100 100 100 100 100 100 98 100 100 100 100 100 93 82 100 100 100 18 72 97 100 100 76 63 100 100 100 100 100 100 100 100 100 100 100 25 100 100 100 100 100 100 99
100 100 100 100 100 100 100 100 100 100 100 100 100 100 100 100 100 100 94 100 100 100 100 100 100 100 100 100 100 100 100 100 100 100 100 100 100 100 94 100 100 100 100 100 100
100 100 100 100 100 100 100 100 100 99 100 100 100 100 100 100 100 100 100 100 100 100 100 100 100 100 100 100 100 100 100 100 100 100 100 100 100 100 100 100 100 100 100 100 100
100 100 100 100 100 100 100 100 100 100 100 100 100 100 100 100 100 100 100 100 100 100 100 100 100 100 100 100 100 100 100 100 100 100 100 100 100 100 100 100 100 100 100 100 100
100 100 100 100 100 100 100 100 100 100 100 100 100 100 100 100 100 100 100 100 100 100 100 100 100 100 100 97 42 89 98 100 100 100 100 100 100 100 32 44 100 100 97 58 51
9 16 34 92 100 100 100 93 100 100 100 100 100 100 100 100 100 100 100 100 100 96 99 100 100 93 30 92 100 100 37 32 80 93 100 80 96 5 6 5 4 2 12 6 0
10 5 36 84 98 48 27 13 88 56 90 100 100 100 100 100 94 100 87 90 100 65 39 66 99 100 83 5 100 100 11 5 5 5 95 98 34 5 5 5 5 5 1 1 2
5 14 5 7 5 10 6 5 5 5 15 18 19 47 65 7 24 34 84 97 98 98 100 100 100 100 92 5 73 93 1 0 0 0 0 0 4 7 5 5 5 5 5 5 5